Погода в Туринской Слободе

Россия / Свердловская область     57°37′05″N   64°23′14″E
темп.,
°C
ветер,
м/с
пор.,
м/с
влажн.,
%
обл.,
%
осадки,
мм/ч
давл.,
гПа
погр.,
м
25 июля, вс
вс2523:00+15ю2291100 0.1 100618
02:00+14ю2294100 0.0 100715
05:00+13з229571 0.0 100716
08:00+18сз456827 0.0 1007432
11:00+19ссз576390 0.0 1009912
14:00+17ссз576433 0.0 1011718
17:00+21ссз573919 0.0 10111940
20:00+17ссз49444 0.0 1012374
26 июля, пн
пн2623:00+12сз34605 0.0 101462
02:00+10сз3872100 0.0 1015152
05:00+10сз38704 0.0 1016200
08:00+14зсз46575 0.0 1017478
11:00+18сз4541100 0.0 10162369
14:00+17зсз464580 0.0 10161433
17:00+16зсз4850100 0.0 1015682
20:00+15з365611 0.0 1015167
27 июля, вт
вт2723:00+13зюз3962100 0.0 1014215
02:00+10зюз38805 0.0 1013168
05:00+9зюз37944 0.0 1013135
08:00+15зюз46705 0.0 1012480
11:00+18з6858100 0.0 10101251
14:00+13з4894100 0.7 1010412
17:00+18зсз57697 1.4 10091258
20:00+16зсз237324 0.6 1009101
28 июля, ср
ср2823:00+13ссв127499 0.6 101026
02:00+11з2273100 0.0 100923
05:00+11зюз2369100 0.0 100971
08:00+14зсз3664100 0.0 1009467
11:00+17з474655 0.1 10081826
14:00+17сз684359 0.0 10091980
17:00+17сз61044100 0.0 10102133
20:00+14сз2556100 0.0 1010173
29 июля, чт
чт2923:00+11юз3365100 0.0 101041
02:00+11юз396780 0.0 1009209
05:00+11юз3971100 0.0 1008263
08:00+11юз41288100 0.8 1007445
11:00+16з597075 0.9 1006891
14:00+22зюз61145100 0.1 10052213
17:00+18з69826 2.3 1006988
20:00+16з38883 2.6 1007198